When you browse on this site, cookies collect data to enhance your experience and personalize the content and advertising you see.
Visit our Privacy Policy to learn more. By continuing to use the site, you agree to this use of cookies and data.
  • In Switzerland
  • List of Countries
  • For 7 days
  • Water Temperature
  • Satellite Maps
  • Weather Map
  • Weather Widgets
  • user-avatar
    Login

    Hourly Weather Lubango

    Today, 25 May, Saturday

    Time Temperature Precipitation Wind Pressure Humidity
    00:00 +18°C° 0.1 mm 2 mps 610 mmHg 59%
    01:00 +18°C° 0.1 mm 2 mps 610 mmHg 60%
    02:00 +19°C° 0 mm 1 mps 610 mmHg 59%
    03:00 +19°C° 0 mm 1 mps 609 mmHg 59%
    04:00 +19°C° 0 mm 1 mps 609 mmHg 58%
    05:00 +17°C° 0 mm 2 mps 609 mmHg 57%
    06:00 +17°C° 0 mm 2 mps 609 mmHg 56%
    07:00 +17°C° 0 mm 2 mps 609 mmHg 55%
    08:00 +19°C° 0 mm 3 mps 610 mmHg 46%
    09:00 +21°C° 0 mm 4 mps 611 mmHg 36%
    10:00 +23°C° 0 mm 5 mps 612 mmHg 27%
    11:00 +26°C° 0 mm 5 mps 612 mmHg 25%
    12:00 +27°C° 0 mm 4 mps 612 mmHg 23%
    13:00 +28°C° 0 mm 4 mps 612 mmHg 22%
    14:00 +28°C° 0 mm 3 mps 611 mmHg 22%
    15:00 +28°C° 0 mm 3 mps 611 mmHg 21%
    16:00 +27°C° 0 mm 2 mps 610 mmHg 21%
    17:00 +25°C° 0 mm 2 mps 610 mmHg 24%
    18:00 +23°C° 0 mm 1 mps 609 mmHg 26%
    19:00 +20°C° 0 mm 1 mps 609 mmHg 29%
    20:00 +19°C° 0 mm 1 mps 609 mmHg 31%
    21:00 +18°C° 0 mm 1 mps 609 mmHg 33%
    22:00 +16°C° 0 mm 1 mps 609 mmHg 36%
    23:00 +16°C° 0 mm 1 mps 609 mmHg 35%

    Tomorrow, 26 May, Sunday

    Time Temperature Precipitation Wind Pressure Humidity
    00:00 +15°C° 0 mm 1 mps 608 mmHg 35%
    01:00 +14°C° 0 mm 2 mps 608 mmHg 34%
    02:00 +14°C° 0 mm 2 mps 608 mmHg 35%
    03:00 +14°C° 0 mm 2 mps 608 mmHg 35%
    04:00 +13°C° 0 mm 2 mps 607 mmHg 35%
    05:00 +13°C° 0 mm 2 mps 608 mmHg 37%
    06:00 +13°C° 0 mm 2 mps 608 mmHg 39%
    07:00 +13°C° 0 mm 2 mps 608 mmHg 41%
    08:00 +16°C° 0 mm 3 mps 609 mmHg 36%
    09:00 +19°C° 0 mm 3 mps 610 mmHg 30%
    10:00 +22°C° 0 mm 4 mps 612 mmHg 25%
    11:00 +25°C° 0 mm 3 mps 612 mmHg 23%
    12:00 +26°C° 0 mm 3 mps 611 mmHg 21%
    13:00 +27°C° 0 mm 2 mps 611 mmHg 19%
    14:00 +27°C° 0 mm 2 mps 611 mmHg 19%
    15:00 +27°C° 0 mm 1 mps 610 mmHg 19%
    16:00 +27°C° 0 mm 1 mps 610 mmHg 19%
    17:00 +24°C° 0 mm 1 mps 609 mmHg 23%
    18:00 +21°C° 0 mm 1 mps 608 mmHg 27%
    19:00 +18°C° 0 mm 1 mps 607 mmHg 31%
    20:00 +16°C° 0 mm 1 mps 608 mmHg 31%
    21:00 +16°C° 0 mm 1 mps 608 mmHg 31%
    22:00 +15°C° 0 mm 1 mps 608 mmHg 32%
    23:00 +15°C° 0 mm 2 mps 608 mmHg 33%

    Day after tomorrow, 27 May, Monday

    Time Temperature Precipitation Wind Pressure Humidity
    00:00 +14°C° 0 mm 2 mps 607 mmHg 34%
    01:00 +14°C° 0 mm 2 mps 607 mmHg 34%
    02:00 +14°C° 0 mm 2 mps 607 mmHg 37%
    03:00 +13°C° 0 mm 2 mps 606 mmHg 41%
    04:00 +13°C° 0 mm 2 mps 606 mmHg 44%
    05:00 +13°C° 0 mm 2 mps 607 mmHg 46%
    06:00 +13°C° 0 mm 2 mps 607 mmHg 48%
    07:00 +13°C° 0 mm 2 mps 607 mmHg 50%
    08:00 +16°C° 0 mm 3 mps 609 mmHg 43%
    09:00 +19°C° 0 mm 3 mps 610 mmHg 36%
    10:00 +22°C° 0 mm 4 mps 611 mmHg 29%
    11:00 +25°C° 0 mm 3 mps 611 mmHg 26%
    12:00 +26°C° 0 mm 3 mps 611 mmHg 24%
    13:00 +27°C° 0 mm 2 mps 610 mmHg 21%
    14:00 +27°C° 0 mm 2 mps 610 mmHg 21%
    15:00 +27°C° 0 mm 2 mps 609 mmHg 21%
    16:00 +27°C° 0 mm 2 mps 609 mmHg 21%
    17:00 +24°C° 0 mm 1 mps 608 mmHg 26%
    18:00 +20°C° 0 mm 1 mps 607 mmHg 32%
    19:00 +16°C° 0 mm 1 mps 606 mmHg 38%
    20:00 +16°C° 0 mm 1 mps 607 mmHg 39%
    21:00 +15°C° 0 mm 1 mps 607 mmHg 40%
    22:00 +15°C° 0 mm 1 mps 607 mmHg 42%
    23:00 +15°C° 0 mm 1 mps 607 mmHg 42%

    28 May, Tuesday

    Time Temperature Precipitation Wind Pressure Humidity
    00:00 +14°C° 0 mm 1 mps 607 mmHg 42%
    01:00 +14°C° 0 mm 1 mps 607 mmHg 42%
    02:00 +14°C° 0 mm 1 mps 607 mmHg 42%
    03:00 +14°C° 0 mm 1 mps 606 mmHg 43%
    04:00 +14°C° 0 mm 1 mps 606 mmHg 43%
    05:00 +14°C° 0 mm 1 mps 607 mmHg 42%
    06:00 +14°C° 0 mm 1 mps 607 mmHg 42%
    07:00 +14°C° 0 mm 1 mps 607 mmHg 42%
    08:00 +18°C° 0 mm 1 mps 609 mmHg 37%
    09:00 +20°C° 0 mm 2 mps 610 mmHg 31%
    10:00 +25°C° 0 mm 2 mps 611 mmHg 25%
    11:00 +26°C° 0 mm 2 mps 611 mmHg 24%
    12:00 +26°C° 0 mm 3 mps 611 mmHg 23%
    13:00 +27°C° 0 mm 3 mps 610 mmHg 21%
    14:00 +27°C° 0 mm 3 mps 610 mmHg 22%
    15:00 +26°C° 0 mm 3 mps 609 mmHg 22%
    16:00 +26°C° 0 mm 3 mps 609 mmHg 23%
    17:00 +21°C° 0 mm 3 mps 608 mmHg 31%
    18:00 +18°C° 0 mm 2 mps 607 mmHg 39%
    19:00 +15°C° 0 mm 2 mps 607 mmHg 47%
    20:00 +15°C° 0 mm 1 mps 607 mmHg 49%
    21:00 +14°C° 0 mm 1 mps 607 mmHg 51%
    22:00 +14°C° 0 mm 1 mps 607 mmHg 53%
    23:00 +14°C° 0 mm 1 mps 607 mmHg 50%

    29 May, Wednesday

    Time Temperature Precipitation Wind Pressure Humidity
    00:00 +14°C° 0 mm 1 mps 607 mmHg 48%
    01:00 +14°C° 0 mm 1 mps 607 mmHg 46%
    02:00 +13°C° 0 mm 1 mps 607 mmHg 45%
    03:00 +13°C° 0 mm 1 mps 606 mmHg 43%
    04:00 +13°C° 0 mm 1 mps 606 mmHg 42%
    05:00 +13°C° 0 mm 1 mps 607 mmHg 41%
    06:00 +13°C° 0 mm 1 mps 607 mmHg 41%
    07:00 +14°C° 0 mm 1 mps 608 mmHg 40%
    08:00 +18°C° 0 mm 1 mps 609 mmHg 35%
    09:00 +21°C° 0 mm 1 mps 611 mmHg 29%
    10:00 +25°C° 0 mm 1 mps 612 mmHg 23%
    11:00 +25°C° 0 mm 2 mps 612 mmHg 23%
    12:00 +26°C° 0 mm 3 mps 611 mmHg 22%
    13:00 +27°C° 0 mm 3 mps 611 mmHg 21%
    14:00 +26°C° 0 mm 3 mps 610 mmHg 22%
    15:00 +25°C° 0 mm 3 mps 610 mmHg 22%
    16:00 +25°C° 0 mm 3 mps 609 mmHg 23%
    17:00 +21°C° 0 mm 3 mps 609 mmHg 29%
    18:00 +18°C° 0 mm 2 mps 608 mmHg 35%
    19:00 +15°C° 0 mm 2 mps 607 mmHg 42%
    20:00 +14°C° 0 mm 2 mps 607 mmHg 44%
    21:00 +14°C° 0 mm 1 mps 607 mmHg 45%
    22:00 +13°C° 0 mm 1 mps 607 mmHg 47%
    23:00 +13°C° 0 mm 1 mps 607 mmHg 47%

    30 May, Thursday

    Time Temperature Precipitation Wind Pressure Humidity
    00:00 +13°C° 0 mm 1 mps 607 mmHg 46%
    01:00 +13°C° 0 mm 1 mps 607 mmHg 45%
    02:00 +13°C° 0 mm 1 mps 607 mmHg 44%
    03:00 +13°C° 0 mm 1 mps 607 mmHg 42%
    04:00 +13°C° 0 mm 1 mps 607 mmHg 40%
    05:00 +13°C° 0 mm 1 mps 607 mmHg 39%
    06:00 +14°C° 0 mm 1 mps 608 mmHg 38%
    07:00 +14°C° 0 mm 1 mps 608 mmHg 36%
    08:00 +18°C° 0 mm 1 mps 609 mmHg 32%
    09:00 +22°C° 0 mm 1 mps 611 mmHg 27%
    10:00 +25°C° 0 mm 2 mps 612 mmHg 23%
    11:00 +26°C° 0 mm 2 mps 612 mmHg 22%
    12:00 +27°C° 0 mm 2 mps 611 mmHg 21%
    13:00 +28°C° 0 mm 2 mps 611 mmHg 20%
    14:00 +27°C° 0 mm 2 mps 611 mmHg 20%
    15:00 +27°C° 0 mm 2 mps 610 mmHg 21%
    16:00 +26°C° 0 mm 2 mps 610 mmHg 21%
    17:00 +23°C° 0 mm 2 mps 609 mmHg 27%
    18:00 +19°C° 0 mm 2 mps 608 mmHg 32%
    19:00 +16°C° 0 mm 2 mps 607 mmHg 38%
    20:00 +15°C° 0 mm 2 mps 607 mmHg 39%
    21:00 +15°C° 0 mm 1 mps 608 mmHg 40%
    22:00 +14°C° 0 mm 1 mps 608 mmHg 41%
    23:00 +14°C° 0 mm 1 mps 608 mmHg 40%
    Show more